Location: Devore Heights
(34.2372°N, 117.4156°W)
Time: 08:12:44
(UTC+00:00)

Altair - Pass Details

Date: 18 September 2024
Orbit: 1501 x 1682 km, 47.2° (Epoch: 07 October)

Event Time Altitude Azimuth Distance (km) Brightness Sun altitude
Rises 16:33:48 0° 304° (WNW) 4,938 9.7 35.0°
Reaches altitude 10° 16:37:02 10° 300° (WNW) 3,944 9.2 35.6°
Maximum altitude 16:46:53 58° 225° (SW) 1,886 8.4 37.4°
Drops below altitude 10° 16:56:27 10° 149° (SSE) 3,837 10.5 39.1°
Sets 16:59:34 0° 146° (SE) 4,797 10.8 39.7°
